Regional Weather Roundup
Issued by NWS

Home | Current Version | Previous Version | Graphics & Text | Print | Product List | Glossary On
Versions: 1 2 3 4 5 6 7 8 9 10 11 12 13 14 15 16 17 18 19 20 21 22 23 24 25 26 27 28 29 30 31 32 33 34 35 36 37 38 39 40 41 42 43 44 45 46 47 48 49 50
000
ASUS43 KIND 201059
RWRIN

WEATHER ROUNDUP FOR INDIANA
NATIONAL WEATHER SERVICE INDIANAPOLIS IN
700 AM EDT WED AUG 20 2014

NOTE: "FAIR" INDICATES FEW OR NO CLOUDS BELOW 12,000 FEET WITH NO
SIGNIFICANT WEATHER AND/OR OBSTRUCTIONS TO VISIBILITY.

* - STATION DOES NOT REPORT WEATHER SUCH AS PRECIPITATION OR FOG.

+ - STATION NOT QUALITY CONTROLLED BY THE NATIONAL WEATHER SERVICE.
    USE DATA WITH CAUTION...ESPECIALLY DEWPOINT AND RELATIVE
    HUMIDITY OBSERVATIONS.

INZ001>003-010>013-019-020-201200-
NORTHWEST INDIANA

CITY           SKY/WX    TMP DP  RH WIND       PRES   REMARKS
GARY /AIRPORT/ PTCLDY    64  63  94 SW5       29.84R
KNOX *+        CLEAR     65  63  93 W3        29.84R
MONTICELLO +   CLEAR     62  61  99 CALM      29.85R
VALPARAISO     CLEAR     64  62  93 W3        29.85R

$$

LMZ046-743>745-201200-
SOUTHERN LAKE MICHIGAN

STATION/POSITION TIME  TEMP WIND        PRES
                       AIR  DIR/SP/G
                 (UTC) (F)  (DEG/KT/KT) (MB)
BURNS HARBOR     1000   71  250/  7/  8   N/A
MICHIGAN CITY    1000   71  220/  9/ 10   N/A

$$

INZ004-005-014>016-021>024-201200-
NORTH CENTRAL INDIANA

CITY           SKY/WX    TMP DP  RH WIND       PRES   REMARKS
ELKHART        CLEAR     64  64 100 CALM      29.85  FOG
GOSHEN         CLEAR     65  63  93 CALM      29.85R FOG
PERU/GRISSOM   CLEAR     63  63 100 SW6       29.86R FOG
SOUTH BEND     CLEAR     65  62  90 CALM      29.85R FOG
WARSAW +       CLEAR     63  63 100 SW3       29.85R FOG

$$

INZ006>009-017-018-025>027-201200-
NORTHEAST INDIANA

CITY           SKY/WX    TMP DP  RH WIND       PRES   REMARKS
ANGOLA *+      CLEAR     66  57  72 CALM      29.84R
FORT WAYNE     PTCLDY    65  64  97 SW6       29.86R

$$

INZ028-029-035-036-043>045-051>053-201200-
WEST CENTRAL INDIANA

CITY           SKY/WX    TMP DP  RH WIND       PRES   REMARKS
GREENCASTLE +  FOG       61  61 100 CALM      29.89R VSB 3/4
LAFAYETTE        N/A     62  62 100 CALM      29.86R FOG
TERRE HAUTE    FOG       68  66  93 CALM      29.89R VSB 1/4

$$

INZ030>032-037>040-046>048-054>057-064-065-201200-
CENTRAL INDIANA

CITY           SKY/WX    TMP DP  RH WIND       PRES   REMARKS
COLUMBUS       CLOUDY    66  66 100 CALM      29.90
INDIANAPOLIS   CLEAR     65  63  93 SW6       29.87R
-EAGLE CREEK   CLEAR     64  62  93 CALM      29.87R
KOKOMO *+      CLEAR     64  63  94 W6        29.87R
MT COMFORT *+  CLEAR     63 N/A N/A S5        29.89R
SHELBYVILLE    CLEAR     65  32  29 S5        29.89R
ZIONSVILLE +   CLEAR     67  64  89 W7        29.89R

$$

INZ033-034-041-042-049-050-058-059-201200-
EAST CENTRAL INDIANA

CITY           SKY/WX    TMP DP  RH WIND       PRES   REMARKS
MUNCIE         CLEAR     66  62  87 SW5       29.88R

$$

INZ060-061-067>069-081>083-085>088-201200-
SOUTHWEST INDIANA

CITY           SKY/WX    TMP DP  RH WIND       PRES   REMARKS
EVANSVILLE     CLEAR     70  68  93 CALM      29.90R

$$

INZ062-063-066-070>080-084-089>092-201200-
SOUTH CENTRAL AND SOUTHEAST INDIANA

CITY           SKY/WX    TMP DP  RH WIND       PRES   REMARKS
BLOOMINGTON    FOG       72  70  93 CALM      29.90R VSB 1/4

$$



USA.gov is the U.S. government's official web portal to all federal, state and local government web resources and services.